When you browse on this site, cookies collect data to enhance your experience and personalize the content and advertising you see.
Visit our Privacy Policy to learn more. By continuing to use the site, you agree to this use of cookies and data.
  • în România
  • Lista ţărilor
  • Pe 7 zile
  • Temperatura apei
  • Hartă satelitară
  • Meteo pe hartă
  • Widget-uri
  • user-avatar
    Intrare

    Meteo pe oră la Inverness

    Astăzi, 16 Ianuarie, Miercuri

    Timp Temperatura Precipitaţii Vânt Presiune Umiditate
    00:00 +8°C° 0.1 mm 6 m/s 741 mmHg 84%
    01:00 +8°C° 0.1 mm 6 m/s 741 mmHg 84%
    02:00 +7°C° 0.1 mm 5 m/s 740 mmHg 84%
    03:00 +7°C° 0.1 mm 5 m/s 740 mmHg 84%
    04:00 +6°C° 0.3 mm 4 m/s 740 mmHg 85%
    05:00 +6°C° 0.3 mm 4 m/s 739 mmHg 86%
    06:00 +5°C° 0.3 mm 4 m/s 739 mmHg 87%
    07:00 +5°C° 0.4 mm 4 m/s 739 mmHg 86%
    08:00 +5°C° 0.4 mm 3 m/s 739 mmHg 85%
    09:00 +4°C° 0.4 mm 3 m/s 739 mmHg 84%
    10:00 +4°C° 0.6 mm 4 m/s 739 mmHg 84%
    11:00 +4°C° 0.6 mm 4 m/s 740 mmHg 83%
    12:00 +4°C° 0.6 mm 4 m/s 740 mmHg 83%
    13:00 +4°C° 0.8 mm 4 m/s 740 mmHg 83%
    14:00 +3°C° 0.8 mm 5 m/s 740 mmHg 84%
    15:00 +3°C° 0.8 mm 5 m/s 740 mmHg 84%
    16:00 +3°C° 0.3 mm 4 m/s 741 mmHg 85%
    17:00 +3°C° 0.3 mm 3 m/s 742 mmHg 86%
    18:00 +3°C° 0.3 mm 3 m/s 742 mmHg 87%
    19:00 +1°C° 1.1 mm 4 m/s 744 mmHg 86%
    20:00 0°C° 1.1 mm 5 m/s 745 mmHg 84%
    21:00 -1°C° 1.1 mm 7 m/s 746 mmHg 83%
    22:00 -2°C° 0.1 mm 6 m/s 747 mmHg 81%
    23:00 -2°C° 0.1 mm 5 m/s 748 mmHg 79%

    Mâine, 17 Ianuarie, Joi

    Timp Temperatura Precipitaţii Vânt Presiune Umiditate
    00:00 -2°C° 0.1 mm 5 m/s 749 mmHg 78%
    01:00 -2°C° 0.1 mm 5 m/s 750 mmHg 77%
    02:00 -2°C° 0.1 mm 5 m/s 751 mmHg 77%
    03:00 -2°C° 0.1 mm 5 m/s 752 mmHg 76%
    04:00 -2°C° 0 mm 5 m/s 752 mmHg 76%
    05:00 -3°C° 0 mm 4 m/s 753 mmHg 76%
    06:00 -3°C° 0 mm 4 m/s 754 mmHg 76%
    07:00 -2°C° 0 mm 4 m/s 754 mmHg 77%
    08:00 -2°C° 0 mm 4 m/s 755 mmHg 78%
    09:00 0°C° 0 mm 3 m/s 755 mmHg 79%
    10:00 +1°C° 0 mm 3 m/s 756 mmHg 78%
    11:00 +1°C° 0 mm 3 m/s 756 mmHg 76%
    12:00 +2°C° 0 mm 3 m/s 757 mmHg 75%
    13:00 +3°C° 0 mm 2 m/s 757 mmHg 76%
    14:00 +2°C° 0 mm 2 m/s 757 mmHg 78%
    15:00 +3°C° 0 mm 1 m/s 757 mmHg 79%
    16:00 +2°C° 0 mm 1 m/s 757 mmHg 81%
    17:00 +2°C° 0 mm 1 m/s 757 mmHg 82%
    18:00 +1°C° 0 mm 1 m/s 757 mmHg 84%
    19:00 +1°C° 0 mm 1 m/s 757 mmHg 84%
    20:00 +1°C° 0 mm 1 m/s 757 mmHg 85%
    21:00 +1°C° 0 mm 1 m/s 757 mmHg 85%
    22:00 0°C° 0 mm 1 m/s 757 mmHg 84%
    23:00 0°C° 0 mm 1 m/s 756 mmHg 84%

    Poimâine, 18 Ianuarie, Vineri

    Timp Temperatura Precipitaţii Vânt Presiune Umiditate
    00:00 0°C° 0 mm 1 m/s 756 mmHg 84%
    01:00 0°C° 0 mm 1 m/s 756 mmHg 84%
    02:00 0°C° 0 mm 1 m/s 755 mmHg 83%
    03:00 -2°C° 0 mm 2 m/s 755 mmHg 83%
    04:00 -2°C° 0 mm 2 m/s 755 mmHg 83%
    05:00 -2°C° 0 mm 2 m/s 754 mmHg 83%
    06:00 -3°C° 0 mm 2 m/s 754 mmHg 83%
    07:00 -2°C° 0 mm 2 m/s 754 mmHg 82%
    08:00 -2°C° 0 mm 2 m/s 753 mmHg 81%
    09:00 -1°C° 0 mm 2 m/s 753 mmHg 80%
    10:00 +1°C° 0 mm 2 m/s 753 mmHg 76%
    11:00 +1°C° 0 mm 3 m/s 753 mmHg 71%
    12:00 +1°C° 0 mm 3 m/s 753 mmHg 67%
    13:00 +1°C° 0 mm 3 m/s 753 mmHg 68%
    14:00 +1°C° 0 mm 3 m/s 753 mmHg 69%
    15:00 +1°C° 0 mm 3 m/s 752 mmHg 70%
    16:00 +1°C° 0 mm 3 m/s 753 mmHg 73%
    17:00 +1°C° 0 mm 3 m/s 753 mmHg 77%
    18:00 -1°C° 0 mm 4 m/s 753 mmHg 80%
    19:00 0°C° 0 mm 4 m/s 753 mmHg 80%
    20:00 0°C° 0 mm 4 m/s 753 mmHg 81%
    21:00 0°C° 0 mm 4 m/s 753 mmHg 81%
    22:00 0°C° 0.1 mm 4 m/s 753 mmHg 81%
    23:00 +1°C° 0.1 mm 4 m/s 753 mmHg 81%

    19 Ianuarie, Sâmbătă

    Timp Temperatura Precipitaţii Vânt Presiune Umiditate
    00:00 +1°C° 0.1 mm 5 m/s 754 mmHg 81%
    01:00 +1°C° 0 mm 4 m/s 754 mmHg 82%
    02:00 0°C° 0 mm 4 m/s 754 mmHg 83%
    03:00 0°C° 0 mm 4 m/s 754 mmHg 84%
    04:00 0°C° 0 mm 4 m/s 754 mmHg 85%
    05:00 0°C° 0 mm 4 m/s 754 mmHg 87%
    06:00 0°C° 0 mm 4 m/s 754 mmHg 88%
    07:00 +1°C° 0 mm 4 m/s 755 mmHg 87%
    08:00 +1°C° 0 mm 4 m/s 755 mmHg 87%
    09:00 +1°C° 0 mm 4 m/s 756 mmHg 87%
    10:00 +1°C° 0 mm 4 m/s 756 mmHg 85%
    11:00 +3°C° 0 mm 4 m/s 756 mmHg 82%
    12:00 +4°C° 0 mm 4 m/s 756 mmHg 80%
    13:00 +3°C° 0 mm 4 m/s 757 mmHg 80%
    14:00 +3°C° 0 mm 3 m/s 757 mmHg 80%
    15:00 +3°C° 0 mm 3 m/s 757 mmHg 81%
    16:00 +2°C° 0 mm 3 m/s 757 mmHg 83%
    17:00 +2°C° 0 mm 2 m/s 757 mmHg 85%
    18:00 +1°C° 0 mm 2 m/s 758 mmHg 87%
    19:00 -1°C° 0 mm 2 m/s 758 mmHg 87%
    20:00 +1°C° 0 mm 1 m/s 759 mmHg 88%
    21:00 +1°C° 0 mm 1 m/s 759 mmHg 88%
    22:00 +1°C° 0 mm 1 m/s 759 mmHg 88%
    23:00 +1°C° 0 mm 1 m/s 760 mmHg 89%

    20 Ianuarie, Duminică

    Timp Temperatura Precipitaţii Vânt Presiune Umiditate
    00:00 +1°C° 0 mm 1 m/s 760 mmHg 89%
    01:00 +1°C° 0 mm 1 m/s 760 mmHg 89%
    02:00 +1°C° 0 mm 1 m/s 760 mmHg 90%
    03:00 +1°C° 0 mm 1 m/s 760 mmHg 90%
    04:00 -1°C° 0 mm 2 m/s 760 mmHg 90%
    05:00 -1°C° 0 mm 2 m/s 760 mmHg 90%
    06:00 -1°C° 0 mm 2 m/s 760 mmHg 90%
    07:00 -1°C° 0 mm 2 m/s 761 mmHg 90%
    08:00 -1°C° 0 mm 2 m/s 761 mmHg 90%
    09:00 0°C° 0 mm 3 m/s 761 mmHg 90%
    10:00 +1°C° 0 mm 3 m/s 762 mmHg 86%
    11:00 +2°C° 0 mm 3 m/s 762 mmHg 83%
    12:00 +3°C° 0 mm 3 m/s 762 mmHg 80%
    13:00 +4°C° 0.2 mm 2 m/s 762 mmHg 82%
    14:00 +4°C° 0.2 mm 2 m/s 763 mmHg 85%
    15:00 +4°C° 0.2 mm 2 m/s 763 mmHg 88%
    16:00 +4°C° 0.1 mm 1 m/s 763 mmHg 90%
    17:00 +4°C° 0.1 mm 1 m/s 764 mmHg 92%
    18:00 +3°C° 0.1 mm 1 m/s 764 mmHg 94%
    19:00 +3°C° 0 mm 1 m/s 764 mmHg 93%
    20:00 +2°C° 0 mm 1 m/s 765 mmHg 93%
    21:00 +2°C° 0 mm 1 m/s 765 mmHg 93%
    22:00 +1°C° 0 mm 1 m/s 765 mmHg 93%
    23:00 +1°C° 0 mm 1 m/s 765 mmHg 92%

    21 Ianuarie, Luni

    Timp Temperatura Precipitaţii Vânt Presiune Umiditate
    00:00 +1°C° 0 mm 1 m/s 765 mmHg 92%
    01:00 -1°C° 0 mm 2 m/s 764 mmHg 91%
    02:00 +1°C° 0 mm 2 m/s 763 mmHg 91%
    03:00 +1°C° 0 mm 2 m/s 762 mmHg 90%
    04:00 +1°C° 0 mm 2 m/s 761 mmHg 90%
    05:00 0°C° 0 mm 3 m/s 760 mmHg 90%
    06:00 +1°C° 0 mm 3 m/s 760 mmHg 91%
    07:00 0°C° 0 mm 4 m/s 759 mmHg 88%
    08:00 +1°C° 0 mm 5 m/s 758 mmHg 85%
    09:00 +1°C° 0 mm 5 m/s 757 mmHg 83%
    10:00 +2°C° 0 mm 6 m/s 755 mmHg 80%
    11:00 +2°C° 0 mm 7 m/s 753 mmHg 78%
    12:00 +1°C° 0 mm 8 m/s 752 mmHg 75%
    13:00 +2°C° 0 mm 9 m/s 750 mmHg 75%
    14:00 +2°C° 0 mm 9 m/s 748 mmHg 75%
    15:00 +2°C° 0 mm 9 m/s 747 mmHg 74%
    16:00 +1°C° 0.2 mm 8 m/s 746 mmHg 78%
    17:00 +2°C° 0.2 mm 7 m/s 745 mmHg 81%
    18:00 +2°C° 0.2 mm 5 m/s 745 mmHg 84%
    19:00 +1°C° 0 mm 6 m/s 744 mmHg 82%
    20:00 +1°C° 0 mm 6 m/s 743 mmHg 79%
    21:00 -1°C° 0 mm 6 m/s 743 mmHg 77%
    22:00 0°C° 0.1 mm 7 m/s 742 mmHg 76%
    23:00 0°C° 0.1 mm 7 m/s 742 mmHg 76%
    Arată mai mult